This demonstration page uses our WeatherBlox Daily Observations layout. Learn more.

Hourly Observations for April 15, 2019

Temp ( °F °C ) Dew Point ( °F °C ) Humidity (%) Winds ( mph kmh ) Pressure ( in mb ) Visibility ( mi km ) Precip ( " mm )
12:15 am 00:15 Cloudy 72 22 66 19 83 83 SSW 14 22 29.44 997 10 16.09344 0 0
12:35 am 00:35 Cloudy 72 22 66 19 83 83 S 14 22 29.41 996 10 16.09344 0 0
12:55 am 00:55 Cloudy 72 22 68 20 88 88 SSW 10 17 29.41 996 10 16.09344 0 0
1:15 am 01:15 Mostly Cloudy 72 22 66 19 83 83 SSW 16 26 29.41 996 10 16.09344 0 0
1:35 am 01:35 Mostly Cloudy 72 22 66 19 83 83 SW 10 17 29.38 995 10 16.09344 0 0
1:55 am 01:55 Cloudy 68 20 61 16 78 78 W 25 41 29.47 998 10 16.09344 0 0
2:15 am 02:15 Cloudy with Thunderstorms 61 16 61 16 100 100 WNW 9 15 29.44 997 5 8.04672 0 0
2:35 am 02:35 Mostly Cloudy 59 15 59 15 100 100 WNW 7 11 29.44 997 10 16.09344 0 0
2:55 am 02:55 Cloudy 59 15 59 15 100 100 WNW 7 11 29.44 997 10 16.09344 0 0
3:15 am 03:15 Cloudy 59 15 59 15 100 100 NNW 3 6 29.44 997 10 16.09344 0 0
3:35 am 03:35 Cloudy 59 15 59 15 100 100 Calm 29.44 997 10 16.09344 0 0
3:55 am 03:55 Cloudy 59 15 59 15 100 100 Calm 29.44 997 10 16.09344 0 0
4:15 am 04:15 Cloudy 57 14 57 14 100 100 WSW 3 6 29.44 997 5 8.04672 0 0
4:35 am 04:35 Partly Cloudy 57 14 57 14 100 100 Calm 29.38 995 10 16.09344 0 0
4:55 am 04:55 Partly Cloudy 57 14 57 14 100 100 Calm 29.41 996 10 16.09344 0 0
5:15 am 05:15 Clear 55 13 55 13 100 100 NW 3 6 29.38 995 10 16.09344 0 0
5:35 am 05:35 Clear 55 13 55 13 100 100 Calm 29.41 996 10 16.09344 0 0
5:55 am 05:55 Clear 55 13 55 13 100 100 Calm 29.41 996 10 16.09344 0 0
6:15 am 06:15 Clear 55 13 55 13 100 100 W 8 13 29.44 997 10 16.09344 0 0
6:35 am 06:35 Sunny 55 13 54 12 94 94 W 15 24 29.44 997 10 16.09344 0 0
6:55 am 06:55 Partly Cloudy 59 15 52 11 77 77 WNW 13 20 29.47 998 10 16.09344 0 0
7:15 am 07:15 Cloudy 59 15 52 11 77 77 WNW 25 41 29.47 998 10 16.09344 0 0
7:35 am 07:35 Cloudy 57 14 46 8 67 67 WNW 25 41 29.5 999 10 16.09344 0 0
7:55 am 07:55 Cloudy 55 13 46 8 72 72 NW 21 33 29.53 1000 10 16.09344 0 0
8:15 am 08:15 Cloudy 54 12 43 6 67 67 NW 25 41 29.53 1000 10 16.09344 0 0
8:35 am 08:35 Partly Cloudy 52 11 41 5 67 67 NW 33 54 29.56 1001 10 16.09344 0 0
8:55 am 08:55 Sunny 54 12 39 4 58 58 WNW 35 56 29.56 1001 10 16.09344 0 0
9:15 am 09:15 Sunny 54 12 37 3 54 54 WNW 25 41 29.59 1002 10 16.09344 0 0
9:35 am 09:35 Sunny 54 12 37 3 54 54 WNW 28 44 29.62 1003 10 16.09344 0 0
9:55 am 09:55 Partly Cloudy 54 12 37 3 54 54 W 25 41 29.62 1003 10 16.09344 0 0
10:15 am 10:15 Mostly Cloudy 52 11 37 3 58 58 NW 21 33 29.65 1004 10 16.09344 0 0
10:35 am 10:35 Mostly Cloudy 54 12 37 3 54 54 NW 26 43 29.65 1004 10 16.09344 0 0
10:55 am 10:55 Mostly Cloudy 52 11 36 2 54 54 WNW 28 44 29.65 1004 10 16.09344 0 0
11:15 am 11:15 Partly Cloudy 52 11 34 1 50 50 WNW 32 52 29.68 1005 10 16.09344 0 0
11:35 am 11:35 Partly Cloudy 52 11 34 1 50 50 WNW 33 54 29.68 1005 10 16.09344 0 0
11:55 am 11:55 Partly Cloudy 52 11 36 2 54 54 WNW 26 43 29.71 1006 10 16.09344 0 0
12:15 pm 12:15 Mostly Cloudy 52 11 36 2 54 54 WNW 26 43 29.71 1006 10 16.09344 0 0
12:35 pm 12:35 Cloudy 52 11 34 1 50 50 WNW 25 41 29.74 1007 10 16.09344 0 0
12:55 pm 12:55 Cloudy 50 10 34 1 54 54 WNW 25 41 29.74 1007 10 16.09344 0 0
1:15 pm 13:15 Cloudy 50 10 34 1 54 54 WNW 13 20 29.77 1008 10 16.09344 0 0
1:35 pm 13:35 Cloudy 52 11 36 2 54 54 NW 26 43 29.77 1008 10 16.09344 0 0
1:55 pm 13:55 Mostly Cloudy 52 11 36 2 54 54 NW 21 33 29.77 1008 10 16.09344 0 0
2:15 pm 14:15 Cloudy 52 11 36 2 54 54 WNW 32 52 29.77 1008 10 16.09344 0 0
2:35 pm 14:35 Mostly Cloudy 54 12 36 2 51 51 NW 25 41 29.8 1009 10 16.09344 0 0
2:55 pm 14:55 Partly Cloudy 54 12 36 2 51 51 WNW 24 39 29.8 1009 10 16.09344 0 0
3:15 pm 15:15 Mostly Cloudy 54 12 34 1 47 47 WNW 29 46 29.8 1009 10 16.09344 0 0
3:35 pm 15:35 Cloudy 52 11 34 1 50 50 WNW 29 46 29.83 1010 10 16.09344 0 0
3:55 pm 15:55 Cloudy 52 11 34 1 50 50 WNW 24 39 29.83 1010 10 16.09344 0 0
4:15 pm 16:15 Cloudy 52 11 34 1 50 50 NW 22 35 29.83 1010 10 16.09344 0 0
4:35 pm 16:35 Cloudy 52 11 34 1 50 50 WNW 17 28 29.83 1010 10 16.09344 0 0
4:55 pm 16:55 Cloudy 52 11 34 1 50 50 NW 29 46 29.85 1011 10 16.09344 0 0
5:15 pm 17:15 Cloudy 50 10 36 2 58 58 NW 18 30 29.88 1012 10 16.09344 0 0
5:35 pm 17:35 Cloudy 52 11 34 1 50 50 NW 30 48 29.88 1012 10 16.09344 0 0
5:55 pm 17:55 Cloudy 52 11 34 1 50 50 NW 26 43 29.91 1013 10 16.09344 0 0
6:15 pm 18:15 Cloudy 52 11 36 2 54 54 NW 15 24 29.91 1013 10 16.09344 0 0
6:35 pm 18:35 Cloudy 52 11 36 2 54 54 NW 16 26 29.94 1014 10 16.09344 0 0
6:55 pm 18:55 Mostly Cloudy 52 11 34 1 50 50 NW 16 26 29.94 1014 10 16.09344 0 0
7:15 pm 19:15 Mostly Cloudy 50 10 34 1 54 54 NW 14 22 29.94 1014 10 16.09344 0 0
7:35 pm 19:35 Cloudy 50 10 34 1 54 54 NW 22 35 29.97 1015 10 16.09344 0 0
7:55 pm 19:55 Partly Cloudy 50 10 34 1 54 54 NW 16 26 29.97 1015 10 16.09344 0 0
8:15 pm 20:15 Partly Cloudy 48 9 34 1 58 58 NW 14 22 30 1016 10 16.09344 0 0
8:35 pm 20:35 Clear 48 9 34 1 58 58 NW 14 22 30.03 1017 10 16.09344 0 0
8:55 pm 20:55 Clear 48 9 32 0 54 54 NW 13 20 30.03 1017 10 16.09344 0 0
9:15 pm 21:15 Clear 46 8 32 0 57 57 NW 9 15 30.03 1017 10 16.09344 0 0
9:35 pm 21:35 Clear 46 8 34 1 62 62 NW 7 11 30.06 1018 10 16.09344 0 0
9:55 pm 21:55 Clear 46 8 34 1 62 62 WNW 3 6 30.06 1018 10 16.09344 0 0
10:15 pm 22:15 Clear 46 8 34 1 62 62 Calm 30.06 1018 10 16.09344 0 0
10:35 pm 22:35 Clear 46 8 34 1 62 62 Calm 30.06 1018 10 16.09344 0 0
10:55 pm 22:55 Clear 46 8 34 1 62 62 WNW 3 6 30.06 1018 10 16.09344 0 0
11:15 pm 23:15 Clear 46 8 34 1 62 62 WNW 8 13 30.09 1019 10 16.09344 0 0
11:35 pm 23:35 Clear 46 8 34 1 62 62 WNW 9 15 30.09 1019 10 16.09344 0 0
11:55 pm 23:55 Clear 46 8 34 1 62 62 NW 3 6 30.09 1019 10 16.09344 0 0

Powered by AerisWeather